Syracuse, NY

6:24 PM EST on November 17, 2019 (GMT -0500)
Syracuse Hancock International

Weather History for KSYR - September, 2019

Change the Weather History Date:

Sunday, September 8, 2019

  Actual Average Record
Temperature  
Mean Temperature 62 °F 65 °F  
Max Temperature 70 °F 75 °F 93 °F (1945)
Min Temperature 54 °F 55 °F 41 °F (1940)
Degree Days  
Heating Degree Days 3 3  
Month to date heating degree days 11 16  
Since 1 July heating degree days 16 42  
Cooling Degree Days 0 3  
Month to date cooling degree days 5 25  
Year to date cooling degree days 573 538  
Growing Degree Days 12 (Base 50)    
Moisture  
Dew Point 53 °F    
Average Humidity 77    
Maximum Humidity 93    
Minimum Humidity 53    
Precipitation  
Precipitation 0.04 in 0.11 in 1.53 in (2016)
Month to date precipitation 1.70 0.93  
Year to date precipitation 32.34 25.52  
Snow  
Snow 0.00 in 0.00 in 0.00 in (2002)
Month to date snowfall 0.0 0.0  
Since 1 July snowfall T 0.0  
Since 1 September snowfall 0.0 0.0  
Snow Depth 0.00 in    
Sea Level Pressure  
Sea Level Pressure 30.06 in    
Wind  
Wind Speed 7 mph ()    
Max Wind Speed 15 mph    
Max Gust Speed 21 mph    
Visibility 10.0 miles    
Events      
T = Trace of Precipitation, MM = Missing Value Source: Averaged Metar Reports

Daily Weather History Graph

Daily Weather History Graph

Search for Another Location

Airport or City:

Astronomy

Sep. 08, 2019 Rise Set
Actual Time 6:36 AM EDT 7:27 PM EDT
Civil Twilight 6:07 AM EDT 7:56 PM EDT
Nautical Twilight 5:32 AM EDT 8:30 PM EDT
Astronomical Twilight 4:57 AM EDT 9:06 PM EDT
Moon 4:42 PM EDT (9/8) 1:06 AM EDT (9/8)
Length of Visible Light 13h 48m
Length of Day
12h 51m
Waxing Gibbous, 75% of the Moon is Illuminated
Sep 8
Waxing Gibbous
Sep 14
Full
Sep 21
Last Quarter
Sep 28
New
Oct 5
First Quarter

Hourly Weather History & Observations

Time (EDT) Temp. Dew Point Humidity Pressure Visibility Wind Dir Wind Speed Gust Speed Precip Events Conditions
12:54 AM 60.1 °F 55.9 °F 86% 29.91 in 10.0 mi WSW 11.5 mph - 0.04 in   Mostly Cloudy
1:54 AM 59.0 °F 55.9 °F 90% 29.91 in 10.0 mi West 9.2 mph - N/A   Mostly Cloudy
2:54 AM 57.9 °F 55.0 °F 90% 29.92 in 10.0 mi West 9.2 mph - N/A   Scattered Clouds
3:54 AM 55.9 °F 53.1 °F 90% 29.94 in 10.0 mi West 6.9 mph - N/A   Partly Cloudy
4:54 AM 55.0 °F 53.1 °F 93% 29.95 in 10.0 mi WSW 4.6 mph - N/A   Partly Cloudy
5:54 AM 55.0 °F 53.1 °F 93% 29.98 in 10.0 mi SW 6.9 mph - N/A   Partly Cloudy
6:54 AM 55.9 °F 54.0 °F 93% 30.01 in 10.0 mi WSW 8.1 mph - N/A   Mostly Cloudy
7:17 AM 57.0 °F 54.0 °F 89% 30.03 in 10.0 mi WSW 9.2 mph - N/A   Mostly Cloudy
7:32 AM 57.0 °F 55.0 °F 93% 30.03 in 10.0 mi West 8.1 mph - N/A   Mostly Cloudy
7:54 AM 59.0 °F 55.9 °F 90% 30.03 in 10.0 mi WSW 8.1 mph - N/A   Mostly Cloudy
8:54 AM 62.1 °F 55.9 °F 80% 30.05 in 10.0 mi West 6.9 mph - N/A   Scattered Clouds
9:19 AM 62.1 °F 55.9 °F 80% 30.06 in 10.0 mi West 8.1 mph - N/A   Mostly Cloudy
9:47 AM 63.0 °F 54.0 °F 72% 30.07 in 10.0 mi WNW 8.1 mph - N/A   Mostly Cloudy
9:54 AM 61.0 °F 54.0 °F 78% 30.06 in 10.0 mi NW 8.1 mph - N/A   Mostly Cloudy
10:01 AM 63.0 °F 54.0 °F 72% 30.06 in 10.0 mi NW 4.6 mph - N/A   Mostly Cloudy
10:54 AM 64.9 °F 52.0 °F 63% 30.06 in 10.0 mi NW 6.9 mph - N/A   Mostly Cloudy
11:54 AM 64.9 °F 51.1 °F 61% 30.06 in 10.0 mi WNW 9.2 mph - N/A   Mostly Cloudy
12:54 PM 68.0 °F 51.1 °F 55% 30.07 in 10.0 mi West 11.5 mph - N/A   Mostly Cloudy
1:54 PM 69.1 °F 52.0 °F 54% 30.08 in 10.0 mi WNW 11.5 mph - N/A   Mostly Cloudy
2:54 PM 66.9 °F 51.1 °F 57% 30.08 in 10.0 mi NNW 15.0 mph - N/A   Overcast
3:54 PM 66.9 °F 50.0 °F 54% 30.09 in 10.0 mi NW 10.4 mph - N/A   Mostly Cloudy
4:54 PM 64.9 °F 50.0 °F 58% 30.11 in 10.0 mi NW 9.2 mph - N/A   Overcast
5:54 PM 64.0 °F 50.0 °F 60% 30.12 in 10.0 mi NNW 9.2 mph - N/A   Overcast
6:54 PM 62.1 °F 50.0 °F 65% 30.14 in 10.0 mi NNW 9.2 mph - N/A   Mostly Cloudy
7:54 PM 60.1 °F 51.1 °F 72% 30.16 in 10.0 mi NW 3.5 mph - N/A   Mostly Cloudy
8:54 PM 57.0 °F 51.1 °F 81% 30.17 in 10.0 mi Calm Calm - N/A   Mostly Cloudy
9:54 PM 57.0 °F 52.0 °F 83% 30.18 in 10.0 mi Calm Calm - N/A   Mostly Cloudy
10:54 PM 55.9 °F 52.0 °F 87% 30.19 in 10.0 mi Calm Calm - N/A   Overcast
11:54 PM 57.0 °F 52.0 °F 83% 30.20 in 10.0 mi Calm Calm - N/A   Mostly Cloudy